Temp
80 79 79 79 79 78 77 75 75 72 72 72 72 71 71 72 72 72 74 73 73 75 75 75 75 76 73 74 70 70 70 69 69 70 69 70 69 69 69 69 69 69 69 69 70 69 69 71 70 69 70 70 70 76 78 77 76 76 78 78 77 77
79 78 78 78 79 78 77 77 78 78 77 75 74 73 75 76 74 76 73 75 76 76 76 76 74 73 75 74 74 69 70 69 69 70 70 70 70 69 69 69 69 69 69 70 69 77 78 71 69 70 71 70 75 78 77 76 75 77 76 78 76 74
78 77 77 77 79 78 79 79 79 77 77 75 75 76 76 75 77 77 77 77 76 76 76 76 74 73 73 71 73 70 70 70 70 70 70 70 70 70 70 70 69 70 70 69 77 81 81 81 80 71 71 76 78 77 76 75 76 77 77 76 76 72
78 78 78 79 79 79 78 79 79 78 78 77 77 77 76 76 76 76 78 77 77 76 76 76 73 71 73 77 76 72 71 71 71 71 71 74 74 73 72 69 69 70 74 79 80 80 80 80 79 78 78 78 78 77 76 76 77 76 77 77 77 71
78 77 77 78 79 78 78 79 79 79 78 78 78 78 77 76 75 76 76 77 79 76 77 76 76 76 77 77 77 77 78 78 77 78 74 78 78 79 78 81 79 78 79 79 78 77 78 77 77 77 78 78 77 77 76 77 78 77 77 77 77 70
78 78 78 80 78 77 77 78 77 78 78 78 77 77 77 77 76 75 76 78 76 76 76 76 75 75 76 76 76 77 78 77 78 77 77 77 78 77 78 79 78 77 78 78 78 78 77 77 77 77 78 77 77 77 77 78 79 77 77 77 77 71
79 78 77 78 78 79 79 78 78 78 78 77 78 77 77 77 76 75 75 75 75 76 76 76 75 75 75 76 76 77 77 77 77 77 77 77 76 77 77 78 78 77 77 78 79 78 79 78 77 77 77 78 78 77 76 78 78 77 78 77 76 73
77 77 77 77 77 78 78 78 77 77 77 76 77 77 77 76 76 76 75 76 75 76 76 76 75 75 76 76 75 76 77 77 77 77 77 77 76 77 77 77 76 78 79 78 79 79 78 79 78 78 77 78 77 77 76 77 77 77 77 77 77 75
76 75 76 77 77 78 78 77 78 78 77 75 77 76 76 76 76 77 76 76 75 74 76 75 74 76 76 75 75 75 77 77 77 77 77 76 76 75 76 76 76 77 77 77 78 77 78 79 78 78 78 78 77 76 76 76 77 77 78 77 76 76
75 76 76 76 77 77 77 77 77 77 76 77 76 76 76 77 77 77 76 75 75 75 74 75 74 75 76 74 75 75 75 75 76 77 77 75 76 76 75 76 77 77 78 77 77 77 77 78 79 79 79 76 76 77 76 77 78 78 77 77 76 76
76 75 76 76 77 76 76 77 77 78 78 77 76 76 77 77 77 77 76 75 76 75 75 74 74 75 75 75 75 74 74 75 75 76 76 76 77 75 76 76 76 76 76 77 77 78 78 77 78 80 78 77 76 76 77 78 78 78 77 77 76 76
76 75 75 75 75 76 76 77 77 78 78 77 76 78 78 78 76 76 76 75 75 76 76 75 73 75 75 75 75 75 75 74 75 76 77 75 77 76 77 78 77 76 75 75 76 77 77 77 77 79 79 79 77 76 78 78 78 78 77 75 76 76
76 74 74 75 76 76 76 78 78 77 77 78 77 78 77 77 76 76 75 76 76 76 75 75 74 74 75 76 75 74 75 74 75 75 75 77 77 76 76 75 75 76 76 75 75 76 78 76 76 77 77 78 77 77 79 78 77 77 76 75 75 75
75 75 74 75 75 77 76 77 77 77 76 77 77 78 77 77 76 76 77 75 76 77 76 76 76 75 75 76 74 75 74 75 76 75 76 76 76 76 75 74 75 75 74 75 74 75 75 75 76 77 77 78 77 77 77 79 78 76 75 75 74 74
74 74 74 75 75 75 75 77 77 77 77 76 77 77 77 77 78 77 78 77 75 75 76 76 75 74 73 75 75 75 75 76 75 75 76 76 75 75 75 74 75 74 74 73 76 76 76 74 74 75 76 75 76 79 76 77 77 75 75 73 73 74
74 74 74 74 74 74 75 76 78 76 78 75 77 78 77 77 78 79 78 77 75 75 75 75 75 74 73 75 76 75 76 75 74 75 74 74 74 73 73 72 72 74 72 74 74 75 74 74 73 74 75 74 75 75 75 76 74 75 74 74 74 73
73 74 74 74 74 74 75 76 76 77 76 76 77 77 78 78 78 78 78 78 76 74 75 74 75 75 73 75 76 75 76 74 74 74 73 74 73 72 71 72 70 72 72 73 74 74 72 72 72 73 74 75 75 73 74 74 74 74 74 73 74 73
73 74 74 74 74 75 76 76 77 77 75 77 76 77 77 78 77 78 77 76 75 75 74 75 74 75 74 76 76 74 75 73 74 73 72 72 72 73 71 69 68 70 71 72 72 72 71 71 73 74 72 74 73 74 74 73 73 72 72 72 72 72
72 73 73 73 74 74 75 75 77 75 75 75 77 77 76 78 76 77 76 75 75 74 74 74 74 74 72 74 74 74 72 72 73 72 71 70 69 71 69 68 69 70 70 72 72 72 71 69 72 73 72 72 72 74 73 74 74 73 74 73 72 73
72 73 73 73 74 75 75 75 75 75 75 75 76 77 76 76 76 77 76 77 76 74 75 74 74 74 72 72 72 73 71 72 72 72 69 68 68 69 68 68 67 69 69 72 73 73 71 67 69 70 68 70 72 72 74 74 73 74 73 73 73 73
72 72 73 74 74 75 74 74 74 74 73 74 75 76 75 75 76 77 75 77 76 75 75 74 74 74 72 72 72 72 71 70 70 70 68 68 71 71 70 69 68 68 68 68 69 72 70 68 67 66 67 68 69 73 73 72 72 72 71 73 73 72
72 72 72 72 72 72 73 75 74 74 74 76 75 75 75 76 74 76 75 75 75 75 75 74 73 73 72 73 71 71 71 71 71 70 69 70 70 69 70 68 69 68 70 68 67 71 69 68 65 62 61 63 67 70 72 71 71 70 70 71 71 71
72 72 73 72 72 72 73 73 72 74 74 75 76 75 76 75 74 75 74 75 75 74 74 75 75 75 73 73 71 71 71 72 71 71 69 70 69 69 70 70 69 67 66 68 68 71 68 67 62 64 65 62 61 61 67 68 68 69 70 70 71 71
72 72 72 72 72 73 73 73 73 73 73 73 74 75 74 75 74 75 75 74 75 75 74 75 76 77 76 74 72 71 71 72 71 71 70 69 70 71 70 70 69 68 67 63 66 66 69 67 65 63 57 58 59 60 58 60 61 65 70 69 70 68
72 71 72 72 71 72 72 71 72 72 73 72 73 73 74 74 75 74 73 75 74 75 75 75 75 75 76 74 73 72 71 71 72 72 71 69 70 70 71 71 69 67 67 63 62 63 67 68 69 67 62 57 56 57 56 58 60 64 67 67 68 68
72 72 72 72 71 72 72 71 71 69 69 70 69 70 70 70 72 73 74 74 75 77 75 75 75 75 75 74 72 72 72 72 72 72 71 71 71 70 69 70 70 69 67 67 64 63 63 66 67 67 65 63 60 56 55 58 58 55 64 68 67 69
72 72 72 72 71 71 71 71 70 70 71 70 69 71 72 72 71 74 74 73 74 73 74 74 74 75 76 75 74 73 73 73 73 72 72 70 69 68 70 71 71 69 68 68 66 62 62 64 66 67 67 65 63 62 62 58 54 57 54 61 65 66
73 72 72 72 71 71 71 71 70 70 70 71 71 71 72 72 72 72 72 72 73 75 76 76 75 76 75 75 74 73 74 74 73 74 72 71 70 70 70 70 69 69 69 68 65 63 62 64 61 63 65 63 64 66 65 63 62 56 55 53 57 65
72 72 72 71 71 71 71 70 70 71 70 72 72 72 73 73 72 72 70 72 72 75 75 74 75 74 74 74 74 73 73 74 73 72 72 72 71 71 69 69 68 68 67 67 66 65 63 63 63 63 62 63 63 63 64 63 62 61 56 53 55 57
72 72 72 71 71 70 70 71 70 70 69 70 72 72 72 72 72 72 71 71 71 72 74 73 73 74 73 74 74 74 74 73 72 72 71 71 71 70 70 70 69 67 67 66 67 65 63 63 64 65 64 63 61 61 61 61 60 59 58 57 52 55
72 73 72 71 71 70 71 71 71 71 70 70 71 71 70 70 72 71 70 71 71 71 71 72 72 71 72 74 73 73 73 73 73 71 71 71 70 70 70 69 69 69 68 66 65 64 64 65 64 64 65 63 62 60 58 57 57 58 56 54 54 56
71 71 71 71 70 70 71 71 71 70 70 71 71 72 71 70 72 72 72 70 70 70 70 71 71 71 71 73 71 71 71 71 71 70 70 71 70 70 70 70 69 68 68 68 67 66 65 64 63 63 65 64 63 62 62 61 61 59 57 57 56 55
71 72 71 71 70 70 70 71 71 72 71 71 71 72 71 71 72 71 70 70 69 69 70 69 70 70 71 70 71 70 70 69 69 69 69 70 69 70 69 69 69 69 68 67 66 65 65 64 64 63 63 65 64 64 63 64 63 60 60 60 58 55
72 72 72 71 71 70 70 70 71 71 72 72 71 70 70 71 71 71 71 70 70 69 69 68 70 70 71 72 71 70 70 69 70 70 70 69 69 69 68 69 69 68 68 67 67 66 65 65 64 64 65 64 64 64 64 64 63 63 61 59 57 55
72 72 71 71 71 70 70 70 71 71 71 72 71 71 71 71 70 71 71 71 70 70 69 70 71 70 71 70 70 70 69 69 69 69 69 68 69 69 69 69 69 68 68 68 67 66 65 65 65 64 64 64 64 65 64 64 65 63 62 60 59 57
73 73 72 71 71 71 71 71 70 70 70 70 71 71 71 71 70 70 71 71 71 70 70 70 70 71 70 71 70 69 69 69 69 68 68 68 68 69 68 67 68 68 67 68 66 66 65 65 64 64 64 64 64 65 65 65 65 64 64 63 61 61
74 74 73 72 71 71 71 70 70 70 70 70 70 70 70 70 71 71 70 70 70 71 71 70 70 71 70 70 69 69 69 68 68 68 68 68 68 68 68 67 67 67 66 67 66 66 66 64 64 64 64 64 64 65 65 65 65 65 65 64 64 63
MSLP
1015.49 1015.53 1015.53 1015.61 1015.57 1015.65 1015.85 1015.81 1015.81 1016.09 1016.09 1016.01 1015.93 1015.85 1015.77 1015.65 1015.57 1015.53 1015.37 1015.33 1015.13 1014.93 1014.81 1014.77 1014.73 1014.61 1014.61 1014.61 1014.77 1014.65 1014.57 1014.53 1014.41 1014.25 1014.17 1014.05 1013.93 1013.81 1013.69 1013.57 1013.41 1013.25 1013.09 1012.89 1012.61 1012.37 1012.21 1012.01 1012.05 1012.09 1011.97 1011.81 1011.49 1010.85 1010.61 1010.61 1010.53 1010.33 1010.01 1009.93 1009.85 1009.65
1015.53 1015.61 1015.61 1015.61 1015.61 1015.65 1015.81 1015.69 1015.61 1015.61 1015.69 1015.77 1015.81 1015.69 1015.57 1015.45 1015.49 1015.25 1015.33 1015.09 1015.01 1014.93 1014.77 1014.81 1014.85 1014.77 1014.53 1014.57 1014.57 1014.77 1014.61 1014.53 1014.41 1014.25 1014.13 1014.01 1013.89 1013.77 1013.65 1013.49 1013.37 1013.17 1012.97 1012.65 1012.37 1011.65 1011.37 1011.57 1011.69 1011.69 1011.69 1011.57 1010.97 1010.65 1010.65 1010.65 1010.53 1010.21 1010.09 1009.73 1009.85 1009.81
1015.49 1015.65 1015.77 1015.73 1015.61 1015.61 1015.61 1015.57 1015.53 1015.69 1015.73 1015.81 1015.73 1015.57 1015.53 1015.49 1015.29 1015.29 1015.21 1015.13 1015.01 1014.97 1014.85 1014.85 1015.01 1015.01 1014.77 1014.77 1014.69 1014.69 1014.57 1014.45 1014.33 1014.21 1014.05 1013.85 1013.73 1013.57 1013.45 1013.33 1013.17 1012.97 1012.69 1012.33 1011.69 1011.37 1011.29 1011.09 1011.05 1011.21 1011.17 1010.93 1010.69 1010.65 1010.73 1010.61 1010.37 1010.09 1009.93 1009.81 1009.81 1009.89
1015.57 1015.57 1015.57 1015.49 1015.41 1015.53 1015.61 1015.57 1015.49 1015.49 1015.45 1015.45 1015.49 1015.45 1015.57 1015.49 1015.41 1015.33 1015.13 1015.05 1014.97 1015.01 1014.81 1014.69 1014.89 1014.85 1014.53 1014.21 1014.17 1014.33 1014.33 1014.13 1014.01 1013.93 1013.89 1013.37 1013.21 1013.13 1013.01 1012.93 1012.81 1012.61 1012.09 1011.73 1011.61 1011.53 1011.41 1011.21 1011.09 1010.97 1010.81 1010.69 1010.57 1010.61 1010.57 1010.45 1010.21 1010.05 1009.89 1009.73 1009.65 1009.93
1015.57 1015.61 1015.61 1015.53 1015.45 1015.53 1015.65 1015.49 1015.45 1015.49 1015.45 1015.41 1015.41 1015.37 1015.37 1015.49 1015.57 1015.45 1015.21 1015.05 1014.93 1015.09 1014.81 1014.73 1014.69 1014.49 1014.33 1014.25 1014.05 1013.89 1013.73 1013.65 1013.61 1013.49 1013.61 1013.17 1013.01 1012.85 1012.61 1012.45 1012.33 1012.17 1012.01 1011.93 1011.77 1011.69 1011.53 1011.41 1011.17 1011.01 1010.77 1010.61 1010.53 1010.45 1010.45 1010.13 1009.97 1010.01 1009.81 1009.49 1009.41 1009.85
1015.57 1015.57 1015.61 1015.37 1015.49 1015.73 1015.65 1015.53 1015.57 1015.57 1015.53 1015.45 1015.49 1015.53 1015.37 1015.37 1015.41 1015.49 1015.33 1015.13 1015.09 1015.01 1014.85 1014.73 1014.77 1014.73 1014.45 1014.33 1014.21 1014.01 1013.81 1013.73 1013.61 1013.53 1013.45 1013.21 1013.09 1013.01 1012.77 1012.53 1012.45 1012.33 1012.13 1011.93 1011.73 1011.65 1011.53 1011.41 1011.25 1011.01 1010.81 1010.61 1010.49 1010.37 1010.21 1010.05 1009.77 1009.85 1009.61 1009.41 1009.29 1009.65
1015.41 1015.61 1015.69 1015.65 1015.57 1015.45 1015.49 1015.53 1015.49 1015.53 1015.45 1015.49 1015.37 1015.45 1015.45 1015.45 1015.57 1015.65 1015.49 1015.41 1015.21 1015.01 1014.93 1014.85 1014.85 1014.73 1014.61 1014.33 1014.33 1014.13 1013.89 1013.77 1013.65 1013.57 1013.49 1013.33 1013.25 1013.05 1012.85 1012.73 1012.53 1012.33 1012.13 1011.93 1011.77 1011.57 1011.33 1011.25 1011.21 1011.05 1010.81 1010.61 1010.45 1010.41 1010.21 1009.97 1009.73 1009.61 1009.45 1009.29 1009.09 1009.29
1015.61 1015.61 1015.65 1015.69 1015.69 1015.53 1015.53 1015.49 1015.65 1015.65 1015.53 1015.77 1015.49 1015.57 1015.57 1015.65 1015.61 1015.61 1015.57 1015.41 1015.29 1015.09 1014.97 1014.89 1014.85 1014.73 1014.57 1014.45 1014.41 1014.21 1013.97 1013.85 1013.73 1013.61 1013.49 1013.41 1013.33 1013.17 1012.97 1012.81 1012.65 1012.37 1012.09 1011.93 1011.77 1011.53 1011.37 1011.13 1010.93 1010.81 1010.73 1010.57 1010.45 1010.33 1010.17 1010.01 1009.77 1009.57 1009.37 1009.09 1008.97 1008.85
1015.69 1015.81 1015.73 1015.69 1015.69 1015.53 1015.53 1015.53 1015.57 1015.53 1015.73 1015.77 1015.57 1015.69 1015.73 1015.57 1015.49 1015.49 1015.57 1015.45 1015.45 1015.41 1015.09 1015.01 1015.01 1014.73 1014.57 1014.65 1014.49 1014.37 1014.13 1014.01 1013.81 1013.77 1013.61 1013.53 1013.41 1013.33 1013.09 1012.89 1012.73 1012.45 1012.13 1011.93 1011.69 1011.53 1011.41 1011.09 1010.85 1010.61 1010.49 1010.49 1010.45 1010.33 1010.13 1009.93 1009.61 1009.49 1009.17 1009.01 1008.85 1008.69
1015.85 1015.77 1015.85 1015.77 1015.61 1015.61 1015.65 1015.69 1015.61 1015.65 1015.73 1015.61 1015.73 1015.81 1015.69 1015.53 1015.53 1015.41 1015.61 1015.65 1015.61 1015.49 1015.37 1015.21 1015.13 1014.89 1014.73 1014.77 1014.65 1014.45 1014.29 1014.17 1014.01 1013.85 1013.69 1013.61 1013.41 1013.33 1013.17 1012.85 1012.65 1012.45 1012.21 1011.97 1011.77 1011.49 1011.33 1011.01 1010.77 1010.45 1010.29 1010.49 1010.41 1010.17 1009.97 1009.73 1009.49 1009.29 1009.09 1008.89 1008.73 1008.61
1015.81 1015.85 1015.85 1015.77 1015.69 1015.73 1015.73 1015.69 1015.61 1015.49 1015.53 1015.61 1015.77 1015.69 1015.53 1015.53 1015.45 1015.53 1015.69 1015.69 1015.45 1015.53 1015.41 1015.37 1015.21 1015.01 1014.85 1014.65 1014.61 1014.53 1014.45 1014.29 1014.17 1013.97 1013.85 1013.65 1013.37 1013.37 1013.09 1012.89 1012.73 1012.57 1012.29 1012.09 1011.77 1011.41 1011.29 1011.05 1010.73 1010.37 1010.21 1010.29 1010.21 1010.09 1009.85 1009.49 1009.41 1009.09 1009.05 1008.81 1008.69 1008.49
1015.77 1015.89 1015.93 1015.85 1015.85 1015.81 1015.77 1015.69 1015.69 1015.49 1015.61 1015.65 1015.81 1015.53 1015.41 1015.49 1015.61 1015.69 1015.73 1015.61 1015.61 1015.49 1015.37 1015.45 1015.49 1015.13 1014.97 1014.85 1014.69 1014.65 1014.45 1014.45 1014.33 1014.13 1013.85 1013.85 1013.53 1013.45 1013.17 1012.97 1012.85 1012.61 1012.45 1012.17 1011.77 1011.41 1011.29 1011.05 1010.85 1010.49 1010.21 1010.05 1009.97 1009.97 1009.61 1009.37 1009.21 1009.05 1008.97 1008.93 1008.69 1008.41
1015.81 1015.97 1015.97 1015.97 1015.81 1015.77 1015.73 1015.69 1015.65 1015.61 1015.69 1015.77 1015.61 1015.53 1015.53 1015.53 1015.69 1015.73 1015.77 1015.61 1015.49 1015.49 1015.37 1015.37 1015.25 1015.29 1014.93 1014.77 1014.77 1014.69 1014.57 1014.49 1014.33 1014.17 1013.93 1013.93 1013.65 1013.45 1013.29 1013.09 1012.89 1012.61 1012.41 1012.21 1011.85 1011.49 1011.25 1011.01 1010.85 1010.57 1010.25 1009.97 1009.85 1009.69 1009.45 1009.37 1009.01 1009.01 1009.01 1008.93 1008.69 1008.49
1015.97 1015.89 1016.05 1015.93 1015.97 1015.77 1015.85 1015.73 1015.69 1015.73 1015.85 1015.77 1015.69 1015.61 1015.69 1015.57 1015.65 1015.65 1015.53 1015.69 1015.53 1015.41 1015.41 1015.37 1015.33 1015.17 1015.05 1014.81 1014.81 1014.69 1014.69 1014.53 1014.41 1014.21 1013.97 1013.89 1013.69 1013.57 1013.41 1013.33 1013.09 1012.77 1012.53 1012.29 1012.01 1011.65 1011.41 1011.21 1010.97 1010.57 1010.25 1010.09 1009.93 1009.53 1009.49 1009.21 1009.05 1009.09 1009.05 1008.93 1008.73 1008.53
1016.01 1015.97 1016.05 1016.05 1015.97 1015.93 1015.97 1015.73 1015.81 1015.77 1015.81 1015.85 1015.77 1015.61 1015.65 1015.53 1015.45 1015.61 1015.37 1015.61 1015.65 1015.65 1015.53 1015.45 1015.41 1015.45 1015.29 1014.93 1014.93 1014.73 1014.69 1014.53 1014.53 1014.33 1014.01 1013.97 1013.81 1013.57 1013.41 1013.41 1013.09 1012.97 1012.69 1012.33 1012.01 1011.73 1011.61 1011.41 1011.21 1010.81 1010.41 1010.25 1010.01 1009.57 1009.61 1009.21 1009.09 1009.17 1008.97 1008.93 1008.73 1008.53
1016.01 1016.01 1016.09 1016.17 1016.09 1016.09 1016.13 1015.89 1015.73 1015.97 1015.69 1016.05 1015.73 1015.57 1015.65 1015.61 1015.41 1015.37 1015.41 1015.45 1015.69 1015.69 1015.65 1015.61 1015.53 1015.49 1015.37 1014.97 1014.81 1014.77 1014.61 1014.77 1014.69 1014.41 1014.33 1014.17 1013.93 1013.89 1013.77 1013.65 1013.45 1012.97 1012.93 1012.61 1012.17 1011.85 1011.65 1011.61 1011.41 1011.01 1010.49 1010.25 1009.97 1009.77 1009.65 1009.33 1009.29 1009.21 1009.01 1008.77 1008.61 1008.53
1016.05 1016.05 1016.05 1016.17 1016.21 1016.17 1016.17 1016.05 1015.93 1015.81 1015.97 1015.89 1015.81 1015.69 1015.57 1015.57 1015.45 1015.45 1015.53 1015.41 1015.69 1015.77 1015.65 1015.65 1015.53 1015.49 1015.41 1015.05 1014.89 1014.85 1014.69 1014.81 1014.65 1014.57 1014.49 1014.21 1014.09 1014.05 1014.01 1013.93 1013.73 1013.33 1013.13 1012.61 1012.21 1012.13 1011.97 1011.81 1011.49 1010.93 1010.57 1010.25 1009.97 1009.93 1009.73 1009.45 1009.41 1009.21 1009.01 1008.77 1008.53 1008.41
1016.05 1016.05 1016.05 1016.09 1016.05 1015.97 1015.97 1015.93 1015.85 1015.73 1015.97 1015.77 1015.89 1015.77 1015.65 1015.61 1015.61 1015.53 1015.45 1015.61 1015.77 1015.73 1015.73 1015.65 1015.61 1015.49 1015.45 1015.17 1014.97 1014.97 1014.85 1014.93 1014.69 1014.61 1014.61 1014.33 1014.25 1014.09 1014.17 1014.21 1014.01 1013.57 1013.37 1012.97 1012.41 1012.29 1012.05 1012.01 1011.53 1010.97 1010.69 1010.41 1010.13 1009.89 1009.69 1009.45 1009.33 1009.33 1009.09 1008.85 1008.69 1008.45
1016.17 1016.09 1016.13 1016.09 1016.13 1016.01 1015.89 1015.97 1015.73 1015.93 1015.85 1015.85 1015.69 1015.69 1015.81 1015.49 1015.69 1015.49 1015.61 1015.73 1015.77 1015.89 1015.69 1015.73 1015.65 1015.57 1015.61 1015.33 1015.13 1015.09 1015.17 1015.05 1014.81 1014.69 1014.73 1014.77 1014.69 1014.33 1014.33 1014.33 1014.09 1013.69 1013.37 1013.05 1012.57 1012.45 1012.41 1012.33 1011.81 1011.13 1010.97 1010.57 1010.17 1009.69 1009.61 1009.37 1009.29 1009.17 1008.93 1008.77 1008.65 1008.25
1016.09 1016.05 1016.05 1016.09 1015.89 1015.77 1015.77 1015.85 1015.89 1015.81 1015.81 1015.81 1015.57 1015.57 1015.73 1015.69 1015.69 1015.49 1015.69 1015.57 1015.53 1015.77 1015.65 1015.69 1015.65 1015.57 1015.65 1015.61 1015.41 1015.21 1015.29 1015.09 1014.93 1014.73 1014.93 1014.89 1014.69 1014.45 1014.53 1014.33 1014.25 1013.93 1013.41 1012.97 1012.53 1012.33 1012.41 1012.57 1011.97 1011.41 1011.21 1010.69 1010.17 1009.73 1009.49 1009.25 1009.29 1009.05 1008.97 1008.73 1008.49 1008.13
1015.97 1016.01 1015.97 1015.81 1015.77 1015.69 1015.73 1015.77 1015.81 1015.77 1015.85 1015.73 1015.73 1015.57 1015.77 1015.85 1015.73 1015.61 1015.89 1015.65 1015.61 1015.65 1015.69 1015.73 1015.69 1015.61 1015.77 1015.49 1015.45 1015.37 1015.33 1015.29 1015.17 1015.01 1015.09 1014.97 1014.49 1014.49 1014.33 1014.29 1014.17 1013.93 1013.73 1013.37 1012.93 1012.49 1012.49 1012.61 1012.17 1011.77 1011.49 1010.81 1010.21 1009.65 1009.37 1009.49 1009.41 1009.29 1009.17 1008.77 1008.53 1008.33
1015.85 1015.89 1015.93 1015.97 1015.93 1016.01 1015.81 1015.53 1015.53 1015.57 1015.57 1015.45 1015.61 1015.61 1015.57 1015.65 1015.89 1015.77 1015.93 1015.85 1015.81 1015.69 1015.73 1015.65 1015.73 1015.73 1015.65 1015.53 1015.57 1015.45 1015.33 1015.25 1015.13 1015.09 1015.05 1014.81 1014.61 1014.49 1014.37 1014.33 1014.17 1013.97 1013.61 1013.53 1013.21 1012.77 1012.73 1012.57 1012.25 1012.17 1011.81 1011.21 1010.29 1009.89 1009.29 1009.37 1009.53 1009.53 1009.29 1008.89 1008.61 1008.29
1015.69 1015.81 1015.81 1015.89 1015.93 1015.89 1015.77 1015.81 1015.89 1015.61 1015.73 1015.53 1015.49 1015.65 1015.61 1015.69 1015.89 1015.81 1015.85 1015.81 1015.77 1015.77 1015.69 1015.53 1015.45 1015.45 1015.37 1015.45 1015.57 1015.45 1015.29 1015.13 1015.05 1015.01 1014.93 1014.73 1014.69 1014.49 1014.33 1014.29 1014.13 1014.13 1014.01 1013.61 1013.29 1012.89 1012.77 1012.85 1012.81 1012.41 1011.93 1011.57 1011.01 1010.77 1009.53 1009.57 1009.85 1009.69 1009.21 1008.93 1008.61 1008.37
1015.73 1015.77 1015.81 1015.81 1015.85 1015.73 1015.77 1015.81 1015.89 1015.89 1015.85 1015.85 1015.57 1015.49 1015.69 1015.69 1015.81 1015.73 1015.61 1015.73 1015.61 1015.73 1015.69 1015.53 1015.33 1015.33 1015.17 1015.37 1015.45 1015.49 1015.29 1015.13 1015.05 1014.93 1014.89 1014.77 1014.57 1014.41 1014.21 1014.09 1014.17 1014.13 1013.97 1014.09 1013.69 1013.45 1013.05 1012.93 1012.93 1012.57 1012.37 1012.13 1011.61 1010.93 1010.65 1010.45 1010.49 1009.57 1009.05 1008.97 1008.73 1008.57
1015.61 1015.73 1015.73 1015.81 1015.89 1015.81 1015.89 1015.97 1015.93 1015.97 1015.93 1016.01 1015.89 1015.81 1015.65 1015.53 1015.45 1015.53 1015.77 1015.49 1015.53 1015.61 1015.57 1015.49 1015.45 1015.41 1015.21 1015.37 1015.33 1015.33 1015.29 1015.13 1014.93 1014.85 1014.81 1014.81 1014.53 1014.49 1014.29 1014.05 1014.13 1014.13 1014.01 1014.17 1014.05 1013.77 1013.17 1012.89 1012.77 1012.69 1012.97 1012.53 1011.77 1011.21 1011.57 1011.17 1010.61 1009.53 1009.25 1008.97 1008.69 1008.53
1015.49 1015.61 1015.69 1015.81 1015.85 1015.85 1015.77 1015.85 1015.93 1016.13 1016.21 1016.09 1016.05 1015.85 1015.89 1015.89 1015.65 1015.57 1015.57 1015.61 1015.45 1015.37 1015.49 1015.49 1015.41 1015.33 1015.29 1015.29 1015.37 1015.29 1015.21 1015.05 1014.81 1014.77 1014.73 1014.69 1014.45 1014.49 1014.37 1014.13 1014.05 1014.05 1013.97 1013.89 1014.05 1013.77 1013.69 1013.17 1013.01 1012.77 1012.97 1013.13 1013.21 1013.05 1012.45 1011.57 1011.17 1010.33 1009.49 1009.21 1008.97 1008.45
1015.41 1015.53 1015.65 1015.73 1015.81 1015.85 1015.89 1015.85 1015.93 1015.93 1015.85 1015.93 1016.01 1015.73 1015.65 1015.77 1015.85 1015.57 1015.53 1015.69 1015.53 1015.53 1015.49 1015.41 1015.41 1015.25 1015.05 1015.17 1015.17 1015.17 1015.05 1014.93 1014.81 1014.61 1014.57 1014.61 1014.57 1014.53 1014.29 1014.17 1014.13 1014.13 1013.93 1013.85 1013.89 1013.97 1013.73 1013.21 1013.09 1012.77 1012.89 1012.89 1012.85 1012.69 1012.41 1012.29 1012.09 1011.45 1010.41 1009.29 1009.05 1008.69
1015.33 1015.45 1015.53 1015.61 1015.77 1015.85 1015.85 1015.85 1015.93 1015.97 1015.89 1015.85 1015.69 1015.73 1015.65 1015.69 1015.65 1015.73 1015.77 1015.69 1015.57 1015.21 1015.09 1015.09 1015.29 1015.17 1015.21 1015.17 1015.25 1015.13 1014.89 1014.69 1014.73 1014.49 1014.53 1014.45 1014.45 1014.37 1014.37 1014.25 1014.21 1014.17 1014.01 1013.89 1014.01 1014.01 1013.85 1013.57 1013.53 1013.05 1012.97 1012.85 1012.61 1012.25 1012.09 1012.05 1012.01 1012.09 1011.89 1011.21 1009.81 1008.73
1015.33 1015.45 1015.49 1015.69 1015.73 1015.77 1015.85 1015.85 1015.85 1015.77 1015.89 1015.61 1015.57 1015.53 1015.45 1015.45 1015.57 1015.61 1015.85 1015.61 1015.57 1015.33 1015.13 1015.25 1015.21 1015.29 1015.25 1015.21 1015.17 1015.05 1014.89 1014.69 1014.69 1014.57 1014.57 1014.33 1014.33 1014.33 1014.37 1014.29 1014.25 1014.17 1014.13 1014.05 1013.97 1013.93 1013.93 1013.73 1013.53 1013.25 1013.17 1012.73 1012.61 1012.37 1012.01 1011.85 1011.85 1011.69 1011.69 1011.49 1010.45 1009.81
1015.25 1015.29 1015.37 1015.57 1015.69 1015.73 1015.81 1015.81 1015.85 1015.85 1015.89 1015.69 1015.49 1015.45 1015.49 1015.53 1015.49 1015.53 1015.57 1015.53 1015.49 1015.41 1015.21 1015.25 1015.25 1015.29 1015.29 1015.09 1015.05 1014.97 1014.85 1014.81 1014.73 1014.73 1014.73 1014.57 1014.53 1014.41 1014.37 1014.29 1014.21 1014.21 1014.13 1014.13 1013.89 1013.93 1013.97 1013.81 1013.57 1013.33 1013.25 1012.89 1012.73 1012.49 1012.17 1011.93 1011.77 1011.69 1011.53 1011.41 1011.17 1010.29
1015.09 1015.05 1015.25 1015.41 1015.53 1015.61 1015.61 1015.65 1015.65 1015.65 1015.73 1015.65 1015.49 1015.53 1015.65 1015.53 1015.33 1015.49 1015.57 1015.41 1015.45 1015.45 1015.41 1015.37 1015.37 1015.29 1015.21 1015.05 1015.05 1015.01 1014.93 1014.85 1014.69 1014.81 1014.73 1014.61 1014.53 1014.45 1014.37 1014.29 1014.13 1014.13 1014.05 1014.13 1014.09 1014.05 1013.89 1013.73 1013.69 1013.33 1013.17 1013.05 1012.85 1012.77 1012.69 1012.41 1012.21 1012.01 1011.89 1011.57 1011.21 1010.37
1014.93 1015.01 1015.13 1015.29 1015.41 1015.41 1015.41 1015.49 1015.53 1015.61 1015.61 1015.49 1015.41 1015.33 1015.41 1015.53 1015.33 1015.21 1015.21 1015.49 1015.45 1015.45 1015.33 1015.33 1015.25 1015.29 1015.21 1015.13 1015.13 1015.09 1015.01 1014.93 1014.81 1014.89 1014.81 1014.65 1014.53 1014.45 1014.41 1014.21 1014.05 1014.05 1014.01 1014.01 1013.97 1013.97 1013.77 1013.73 1013.61 1013.45 1013.01 1013.09 1012.85 1012.65 1012.41 1012.29 1012.13 1012.05 1011.97 1011.53 1011.45 1010.85
1014.85 1014.85 1015.01 1015.09 1015.29 1015.33 1015.37 1015.33 1015.33 1015.33 1015.37 1015.33 1015.37 1015.29 1015.25 1015.25 1015.21 1015.33 1015.33 1015.37 1015.45 1015.41 1015.33 1015.33 1015.29 1015.29 1015.09 1015.17 1015.09 1015.13 1015.13 1015.09 1015.01 1014.89 1014.85 1014.73 1014.57 1014.49 1014.45 1014.13 1013.97 1013.97 1013.97 1013.97 1014.01 1014.05 1013.89 1013.81 1013.61 1013.49 1013.25 1013.05 1012.85 1012.49 1012.37 1012.17 1012.01 1011.97 1011.65 1011.37 1011.29 1010.93
1014.61 1014.69 1014.81 1015.01 1015.13 1015.25 1015.29 1015.29 1015.25 1015.25 1015.17 1015.17 1015.29 1015.33 1015.29 1015.21 1015.09 1015.21 1015.21 1015.33 1015.33 1015.33 1015.37 1015.37 1015.21 1015.21 1015.09 1015.05 1015.05 1015.05 1015.09 1015.09 1014.97 1014.89 1014.81 1014.73 1014.65 1014.49 1014.45 1014.17 1013.97 1014.01 1013.89 1013.93 1013.89 1013.93 1013.77 1013.77 1013.61 1013.45 1013.29 1013.09 1012.97 1012.57 1012.37 1012.21 1012.01 1011.73 1011.61 1011.49 1011.25 1011.17
1014.41 1014.53 1014.73 1014.89 1014.97 1015.09 1015.13 1015.17 1015.17 1015.17 1015.21 1015.13 1015.13 1015.21 1015.13 1015.13 1015.21 1015.09 1015.05 1015.13 1015.21 1015.21 1015.25 1015.17 1015.09 1015.09 1015.09 1015.13 1015.09 1015.05 1015.09 1015.01 1014.93 1014.89 1014.81 1014.77 1014.61 1014.41 1014.33 1014.21 1013.97 1014.05 1013.77 1013.85 1013.85 1013.81 1013.73 1013.65 1013.49 1013.45 1013.33 1013.25 1013.05 1012.53 1012.41 1012.21 1011.85 1011.65 1011.57 1011.57 1011.49 1011.25
1014.09 1014.25 1014.49 1014.69 1014.81 1014.89 1014.97 1014.93 1015.09 1015.13 1015.17 1015.13 1015.09 1015.09 1015.09 1015.09 1015.09 1015.13 1015.01 1015.01 1014.97 1015.17 1015.17 1015.17 1015.09 1015.09 1015.09 1015.09 1015.05 1015.05 1014.97 1014.89 1014.89 1014.81 1014.77 1014.69 1014.61 1014.41 1014.33 1014.29 1014.09 1014.01 1013.93 1013.81 1013.85 1013.77 1013.69 1013.53 1013.49 1013.45 1013.33 1013.21 1012.97 1012.45 1012.25 1012.17 1011.93 1011.77 1011.49 1011.41 1011.33 1011.09
1013.93 1014.01 1014.25 1014.45 1014.61 1014.69 1014.77 1014.89 1014.97 1014.97 1014.97 1014.97 1015.05 1015.09 1015.05 1015.05 1015.05 1014.97 1015.01 1015.01 1015.01 1014.93 1014.97 1015.13 1015.05 1015.05 1015.13 1015.09 1015.05 1015.05 1014.97 1014.85 1014.81 1014.81 1014.77 1014.65 1014.57 1014.45 1014.37 1014.25 1014.13 1014.05 1013.97 1013.89 1013.81 1013.65 1013.53 1013.61 1013.53 1013.45 1013.25 1013.17 1013.01 1012.53 1012.29 1012.17 1011.93 1011.73 1011.45 1011.25 1011.09 1010.85
Wind_Speed
3 3 3 3 3 4 5 5 6 7 6 5 4 4 4 6 5 4 3 3 1 3 4 4 5 5 4 5 7 6 6 5 6 6 6 7 6 6 6 6 6 7 6 7 9 11 9 4 3 2 5 7 12 7 4 5 6 6 5 6 5 5
4 3 3 2 2 2 4 0 3 3 3 3 3 1 3 2 2 2 4 1 3 4 4 5 5 5 4 4 6 5 5 5 6 6 5 5 5 5 4 5 6 6 7 8 11 8 4 11 9 3 4 9 8 4 4 5 5 5 5 5 6 5
2 3 2 2 2 2 2 1 3 2 3 2 2 1 2 1 1 1 3 3 2 4 3 4 5 4 3 3 5 4 4 4 3 4 3 2 1 2 3 4 2 6 10 14 9 5 5 6 3 9 10 7 5 4 5 5 6 5 6 5 7 7
3 2 2 2 1 2 1 1 1 1 1 2 2 2 2 1 2 4 3 2 3 3 2 2 2 6 6 1 4 6 3 5 6 5 7 6 4 4 8 13 9 8 8 5 6 6 6 6 6 6 6 5 5 5 5 5 5 6 6 6 7 6
2 2 1 1 1 2 1 0 1 1 1 2 2 2 2 2 2 2 3 3 4 3 2 3 4 4 4 3 4 4 2 4 4 4 6 4 5 6 7 7 6 6 6 7 6 6 6 6 6 6 6 5 6 5 6 6 6 6 7 8 8 6
2 2 1 1 2 2 2 1 2 1 1 2 2 2 2 2 2 3 4 4 3 2 3 3 4 4 4 4 4 4 4 4 4 4 6 5 6 6 6 6 6 6 6 6 6 7 6 6 7 7 7 6 6 6 6 6 7 7 8 8 9 7
2 2 0 2 1 1 1 1 1 2 2 2 2 2 2 2 3 3 3 4 4 3 2 3 3 3 4 4 4 4 4 4 4 5 5 6 6 6 6 6 6 7 6 7 7 7 7 7 6 7 7 7 6 7 7 7 7 7 8 9 9 11
2 1 2 1 1 1 1 1 2 3 1 3 2 2 2 3 1 3 3 3 3 4 3 3 3 4 4 5 5 5 4 4 5 5 5 5 6 6 6 6 6 8 7 7 8 7 7 8 7 7 7 7 7 7 7 7 8 8 8 9 9 9
1 1 1 2 1 1 1 1 1 1 2 2 2 2 2 1 2 3 3 4 5 4 4 4 5 4 4 5 4 5 5 5 5 5 5 5 6 6 6 6 7 7 7 8 7 6 7 8 7 7 6 7 7 7 7 7 8 8 8 9 9 10
2 2 2 2 1 1 1 1 1 2 2 1 3 2 1 2 2 3 4 5 5 4 4 5 4 4 5 4 4 5 5 5 5 5 6 5 5 6 6 6 7 7 8 8 8 7 7 7 8 7 5 6 7 7 7 7 8 8 8 9 9 10
2 1 2 2 1 1 1 1 1 1 1 2 2 2 1 2 3 3 4 5 5 5 5 6 5 4 5 4 4 4 5 5 6 6 6 7 6 7 7 7 8 9 8 9 8 7 8 8 8 8 6 7 6 7 7 7 7 8 9 9 9 10
2 1 2 2 2 2 2 2 1 1 1 3 0 0 1 3 3 4 4 4 5 5 5 5 6 6 4 5 5 5 5 5 6 7 6 8 8 7 7 8 8 9 8 9 8 7 8 7 8 8 8 7 6 6 7 7 8 8 9 9 10 9
1 1 2 1 1 1 2 2 2 1 1 1 1 0 2 3 3 3 3 4 4 5 5 5 5 5 6 5 5 5 6 6 6 7 7 9 10 8 8 8 8 9 7 9 8 8 8 8 8 8 8 8 6 7 7 8 7 8 8 9 9 10
1 2 1 1 1 2 2 2 1 1 2 1 1 1 2 1 2 2 3 5 5 6 5 5 6 6 6 5 6 5 7 7 7 8 8 8 8 8 8 9 9 9 8 8 9 9 9 9 9 9 8 8 7 7 7 8 7 7 8 8 8 9
3 2 2 2 2 2 3 2 1 1 2 2 1 1 1 1 2 2 2 4 5 5 6 6 5 5 5 5 6 6 6 7 8 8 8 8 9 9 9 10 9 9 10 9 9 9 10 10 11 10 9 7 8 7 7 8 7 8 8 7 8 9
3 2 2 1 1 2 3 1 0 1 1 1 1 0 1 2 2 2 2 3 4 5 5 6 6 6 5 5 5 6 6 7 8 8 8 8 8 8 9 10 11 11 10 11 10 10 9 11 11 11 9 8 7 8 7 8 8 8 8 8 8 8
4 2 1 2 2 2 2 2 2 1 2 0 1 1 1 1 2 2 3 3 4 4 5 5 6 6 5 6 5 6 6 8 8 8 8 8 8 8 9 10 10 10 11 11 11 11 10 11 11 10 10 10 8 7 7 7 7 7 8 9 10 9
2 3 2 1 3 3 3 3 3 2 1 2 1 1 1 1 2 2 3 3 3 4 4 5 6 6 6 6 6 6 7 7 8 8 8 9 8 8 9 10 11 10 10 11 10 11 11 12 12 10 11 11 9 7 7 7 6 7 7 9 9 10
3 2 3 2 2 4 2 3 1 2 2 2 1 0 1 1 2 2 3 3 2 3 4 5 5 6 6 6 6 6 7 8 7 7 8 8 9 10 9 9 11 11 10 10 10 10 11 12 13 11 12 12 10 9 6 6 6 7 8 9 9 9
3 2 3 3 3 4 3 4 3 2 2 1 2 0 0 1 1 2 2 3 3 2 4 4 5 6 6 6 6 6 7 8 8 7 8 9 8 9 10 11 11 12 12 10 9 9 11 11 12 11 13 11 10 8 7 6 7 8 8 9 9 9
3 3 3 3 3 2 3 3 2 2 2 1 2 1 1 1 2 2 3 4 4 3 4 4 5 6 6 6 6 6 7 7 7 8 8 8 9 10 10 10 10 9 11 12 10 10 11 11 11 10 11 10 9 7 5 4 6 8 8 8 8 9
3 3 3 3 2 2 3 3 2 2 2 1 2 2 1 1 1 1 2 3 3 3 4 3 4 5 5 6 6 6 7 7 7 7 7 8 10 10 9 9 10 10 10 10 9 11 11 12 11 12 12 11 6 7 3 3 7 11 9 7 8 9
3 2 2 2 4 4 3 2 3 2 2 1 0 3 3 2 1 3 1 3 2 3 3 4 3 4 4 5 6 7 7 7 7 7 7 8 8 9 9 10 11 10 10 10 9 9 11 12 12 13 11 10 8 9 4 3 10 11 8 7 8 9
3 3 2 2 3 2 2 1 2 3 2 4 3 1 2 2 2 2 2 1 2 2 3 4 5 5 5 6 6 6 7 7 7 7 7 8 8 9 9 9 10 10 10 9 9 10 11 11 10 12 12 12 11 8 9 8 14 12 7 11 9 10
3 2 2 2 2 2 3 4 3 3 3 3 4 3 2 3 1 1 3 1 2 3 4 4 5 5 6 6 6 6 7 7 6 7 7 7 8 9 10 10 10 9 10 9 10 8 9 10 12 10 10 12 10 8 10 13 15 7 9 11 11 11
2 1 2 3 2 2 2 3 3 3 3 3 3 2 2 2 2 2 3 3 4 3 4 4 5 5 5 6 6 7 7 7 6 6 6 7 7 8 9 10 9 9 9 9 8 9 9 9 10 10 10 8 7 9 12 14 14 12 12 6 10 11
2 2 2 2 2 2 2 2 3 4 3 3 3 2 1 2 3 3 1 3 4 3 4 4 4 5 5 5 6 6 6 6 6 6 6 7 7 7 8 8 9 9 8 8 8 8 9 9 9 8 9 8 8 7 9 10 11 13 14 13 11 11
3 2 2 2 3 2 2 2 2 3 4 4 3 3 2 1 2 3 3 4 4 3 2 3 4 5 6 5 5 6 6 5 5 6 6 6 6 7 7 8 8 8 7 7 7 8 9 9 10 9 10 9 9 8 9 9 9 9 10 12 14 12
4 3 3 2 2 2 2 2 2 2 3 3 2 3 2 2 3 2 4 3 4 4 3 3 4 4 4 5 4 5 6 6 6 7 6 6 6 7 8 8 8 7 7 7 6 7 7 8 9 10 10 9 9 9 9 8 8 9 8 10 11 13
5 4 3 3 2 2 2 2 2 2 3 3 2 2 3 2 2 2 3 2 2 2 3 3 3 4 4 4 4 5 5 6 6 6 6 6 6 7 7 8 7 7 7 7 6 7 7 7 8 9 9 9 9 10 10 9 9 10 9 9 11 13
6 4 4 3 3 3 3 3 3 2 2 3 3 3 3 3 2 2 2 1 1 2 3 3 3 2 3 4 4 5 5 6 5 5 6 6 6 6 6 6 6 6 6 6 6 6 7 8 8 9 9 8 9 9 9 10 10 10 10 10 11 12
6 5 4 4 3 3 3 3 3 3 3 3 3 2 2 3 3 3 0 1 1 2 2 2 2 2 2 4 3 4 5 5 5 5 6 6 7 6 6 6 5 6 6 6 6 6 6 8 9 9 9 7 8 8 8 9 9 9 9 10 10 11
7 6 5 4 4 4 4 4 4 3 4 2 3 2 3 2 1 1 2 2 2 2 2 2 2 3 2 3 3 3 4 4 4 5 6 7 6 6 5 5 5 6 6 6 6 6 6 8 9 9 10 8 7 8 8 8 8 8 8 8 9 11
7 6 5 5 4 5 4 4 3 4 3 3 3 2 2 2 1 2 2 2 2 2 2 2 2 2 2 3 3 3 3 4 5 6 7 6 5 5 4 5 5 5 6 5 5 6 7 8 8 9 9 8 8 8 8 8 9 8 9 9 9 10
7 7 6 5 5 5 4 4 4 4 3 3 3 3 2 1 2 3 2 2 2 2 2 2 3 2 2 3 2 3 4 4 5 6 6 5 4 4 3 5 5 4 5 4 5 5 7 8 8 9 10 8 7 7 8 7 9 8 8 7 8 9
8 7 7 6 5 5 5 4 5 4 4 4 3 3 2 2 3 3 3 3 2 2 3 2 3 3 2 3 2 3 3 4 5 5 5 4 4 4 4 4 4 4 5 3 5 6 6 7 8 9 8 8 7 7 7 8 7 7 7 6 7 7
8 7 7 7 6 5 5 5 5 5 5 4 5 4 3 3 4 3 3 3 3 3 2 3 3 2 3 2 3 3 4 4 4 4 4 4 3 3 4 4 4 5 4 5 5 5 5 6 7 7 6 8 6 7 7 7 6 7 8 8 7 7
Wind_Direction
119 116 95 76 69 74 101 146 119 95 95 67 63 71 104 128 127 108 89 68 42 27 38 29 28 21 41 53 36 28 26 32 27 38 36 38 35 26 18 8 355 341 320 319 289 273 237 205 172 316 320 308 287 281 345 320 326 303 315 309 315 330
129 119 112 85 80 88 124 94 77 75 50 87 82 137 143 113 127 128 168 113 23 23 18 47 24 5 44 25 72 33 44 47 39 44 43 46 33 27 7 360 343 324 298 288 278 277 226 179 173 192 274 269 278 343 334 325 312 305 314 308 320 358
89 116 98 104 74 96 106 44 85 95 110 73 82 67 103 171 71 68 20 8 28 26 26 44 40 20 17 98 72 48 52 60 52 30 351 277 18 9 295 273 260 295 278 257 263 339 319 339 322 184 220 249 322 328 323 310 298 311 308 331 301 1
144 135 165 60 56 113 90 49 57 97 60 67 61 58 74 30 47 1 10 348 43 8 18 47 132 193 219 4 125 153 161 191 176 133 334 275 236 140 292 218 201 254 267 337 346 320 339 331 324 332 325 305 305 323 307 310 307 312 311 322 309 353
142 144 131 136 136 92 102 220 88 83 32 30 34 51 78 92 44 357 335 5 27 18 4 30 26 23 17 31 15 12 18 17 12 8 351 351 346 357 342 354 347 333 349 329 337 324 326 324 322 320 321 315 303 307 300 306 314 310 311 320 321 337
145 130 140 11 22 98 225 133 94 52 26 32 50 42 49 66 65 23 359 12 7 21 356 47 34 20 24 26 12 11 7 15 359 3 1 352 356 354 347 351 344 342 341 325 326 332 315 316 316 321 317 320 307 300 302 304 312 308 312 321 318 340
141 144 152 25 196 187 83 124 135 34 335 50 40 33 65 63 53 28 16 14 349 6 27 25 32 25 26 18 16 9 9 6 4 6 6 352 357 356 351 345 347 338 335 330 327 323 320 319 312 305 311 311 318 307 299 303 307 312 315 316 322 316
153 190 169 165 223 190 143 110 88 169 143 31 340 66 79 51 53 59 23 22 2 2 13 27 17 15 24 17 11 17 2 12 7 11 3 360 358 354 350 346 340 336 334 333 326 323 328 314 314 309 303 306 310 309 306 303 303 308 312 314 321 325
151 174 156 227 176 265 138 168 137 92 71 338 49 59 42 44 43 59 39 29 25 13 11 25 10 11 19 17 14 14 5 12 8 11 354 4 355 348 348 343 336 338 335 333 326 324 325 315 314 309 306 312 315 306 301 302 306 308 310 319 319 326
195 162 168 233 228 174 195 179 182 52 56 214 86 80 229 68 39 36 52 28 34 19 18 9 22 3 18 18 22 10 15 11 9 8 355 360 354 348 341 340 336 338 337 332 329 328 318 320 313 308 310 315 306 307 306 302 311 308 316 315 321 318
188 184 226 242 241 183 241 224 134 167 87 39 95 188 116 50 52 54 53 33 32 36 18 26 13 12 20 13 26 17 21 9 7 8 358 353 356 350 340 346 346 338 340 332 327 328 330 319 321 312 324 305 306 307 306 307 307 309 311 319 320 322
195 219 258 241 213 218 225 155 184 129 57 67 253 317 61 75 51 57 38 35 36 30 24 41 16 4 19 17 19 9 16 11 8 360 0 350 350 348 342 345 344 336 341 328 328 328 329 324 322 322 316 311 310 307 302 317 307 315 315 318 319 326
142 143 216 236 255 233 199 173 165 116 84 37 138 193 65 55 58 74 50 28 35 35 24 22 28 19 1 23 13 12 4 11 1 359 352 354 345 350 348 344 345 336 344 329 329 336 333 329 326 325 317 313 314 303 317 308 311 317 319 318 321 323
158 182 115 174 216 191 170 144 147 103 84 232 67 96 65 67 77 55 63 33 25 24 23 31 9 18 7 11 6 13 1 11 354 0 348 357 347 352 351 348 347 339 346 333 332 338 337 337 335 324 324 324 308 308 313 309 321 318 317 317 321 319
161 178 177 148 197 142 172 158 166 101 63 331 76 32 37 5 95 46 24 54 27 30 24 17 24 5 8 359 8 6 2 12 357 352 354 360 348 352 355 349 349 344 346 337 335 338 341 339 336 329 327 324 303 316 309 307 320 317 320 319 313 330
179 178 148 154 143 170 159 212 136 41 80 341 330 270 127 26 10 49 35 55 32 27 26 21 17 9 359 357 12 1 9 9 355 354 1 353 352 356 355 351 346 345 345 341 334 341 343 342 335 326 327 318 314 306 306 307 320 315 319 312 326 325
201 200 176 159 202 185 195 192 251 88 360 285 334 314 67 345 53 50 1 35 30 24 14 24 14 13 360 354 9 2 8 6 358 357 1 352 356 358 354 351 345 345 345 337 344 341 339 343 331 328 329 322 321 311 295 307 308 314 315 321 325 328
201 218 220 216 209 212 187 237 196 224 156 329 327 336 10 335 48 7 11 30 12 13 8 14 13 8 4 358 356 5 360 360 358 354 2 353 355 357 360 347 347 349 346 339 344 344 344 346 333 333 332 326 319 307 295 295 314 308 314 324 329 323
214 204 220 216 232 234 226 221 264 251 202 227 221 109 303 313 35 343 25 14 349 7 356 360 11 3 359 0 355 1 1 351 352 350 3 353 351 350 3 345 347 346 345 343 341 347 344 344 330 334 335 328 319 311 304 295 302 298 316 329 322 321
210 224 225 231 229 225 213 216 217 203 240 233 280 344 109 317 303 3 18 355 5 3 357 358 5 8 3 3 352 356 3 349 354 351 359 351 348 354 349 347 351 341 343 346 341 350 349 343 330 337 332 321 319 311 284 301 307 313 318 317 322 328
187 204 238 235 223 243 220 209 234 271 281 170 271 330 160 264 295 55 352 354 359 4 357 5 353 8 1 358 2 357 356 355 349 354 353 345 352 351 350 348 351 340 345 343 344 350 353 346 331 339 329 327 315 323 301 284 321 332 325 318 326 326
193 203 224 243 266 237 254 261 254 232 258 243 199 239 9 163 235 36 332 3 345 349 1 356 358 8 345 3 1 355 352 351 351 356 345 350 349 352 353 349 348 345 350 342 343 351 350 349 345 346 338 336 326 330 328 310 356 335 324 318 324 325
202 226 206 221 235 228 228 250 264 313 271 285 269 329 330 9 344 314 356 327 339 342 348 339 350 359 333 12 353 351 351 351 349 348 346 351 349 351 357 350 349 349 347 344 345 351 351 1 346 345 338 330 348 328 358 344 341 330 321 334 326 334
205 225 237 207 235 235 252 250 242 269 282 289 334 1 266 252 260 258 285 13 313 337 338 327 356 343 347 358 351 346 343 347 344 347 346 347 348 353 349 356 353 348 349 344 349 350 352 358 354 350 351 351 334 326 337 347 339 327 339 336 338 338
210 227 226 175 214 237 199 214 218 215 242 237 240 250 272 274 248 262 255 264 354 328 319 332 338 333 344 346 348 342 343 338 339 344 350 340 347 352 349 352 358 345 351 351 345 343 349 358 355 8 354 346 349 342 346 334 331 323 353 331 342 333
196 211 206 183 205 234 215 230 208 218 217 226 252 244 274 302 290 279 328 1 291 332 324 328 326 333 337 341 339 337 342 334 342 338 347 339 344 349 345 347 358 346 347 358 347 345 350 353 353 359 6 358 350 332 329 333 331 330 326 334 331 329
191 182 187 191 201 231 235 238 245 256 265 280 297 297 331 300 279 290 291 299 322 314 310 317 325 322 334 342 336 332 340 331 340 331 345 334 344 341 342 349 353 345 347 346 352 345 349 351 350 357 357 349 343 329 326 330 334 326 329 332 330 331
183 183 167 181 199 239 273 248 257 257 264 267 272 301 319 281 269 272 277 290 311 302 301 335 329 325 343 327 338 329 329 338 335 338 337 332 338 340 339 344 349 343 345 348 350 351 346 353 350 348 351 343 340 336 339 330 329 324 315 316 319 322
182 185 154 181 217 198 244 287 275 266 256 261 282 281 278 280 291 286 285 297 301 319 320 338 330 332 325 329 319 333 330 332 345 335 340 330 339 339 336 339 342 345 351 347 353 346 348 350 347 350 343 347 341 343 338 342 332 332 323 317 312 320
185 191 163 176 197 204 219 239 246 257 280 279 265 263 283 294 272 265 267 273 305 300 336 313 337 329 325 315 341 331 330 344 334 350 332 335 327 328 335 336 340 344 343 344 349 351 350 349 346 348 347 343 343 343 343 343 344 341 333 319 315 322
188 188 168 187 193 197 205 216 241 259 268 274 271 272 277 272 256 242 276 294 287 335 314 327 318 319 315 329 352 332 342 336 346 344 335 331 330 329 330 332 336 338 340 346 350 345 344 349 351 346 353 345 344 346 342 340 338 338 329 321 323 328
188 188 182 189 194 199 198 205 228 237 246 265 291 275 274 295 311 309 293 261 286 272 302 315 305 302 323 344 338 338 339 337 346 341 333 332 327 325 325 325 336 339 345 342 346 345 343 352 348 346 352 346 341 339 342 342 334 327 324 328 326 327
189 188 189 189 196 197 201 210 219 219 225 236 264 287 285 272 282 285 306 294 280 294 301 305 318 311 347 339 333 338 340 336 335 332 329 327 327 323 321 317 337 341 339 343 351 343 342 346 345 348 346 345 335 340 345 341 331 325 325 329 335 336
189 187 188 190 199 202 203 216 216 236 239 224 222 230 255 271 249 254 254 262 286 299 303 282 286 308 336 330 339 336 330 327 327 330 330 327 324 318 319 316 330 342 340 348 341 338 341 342 338 346 342 343 339 335 349 339 334 331 339 340 343 343
189 185 187 193 197 203 208 206 217 217 227 239 233 222 239 254 266 250 232 242 254 272 278 302 313 320 315 303 313 319 328 322 332 332 331 327 322 309 320 315 330 339 329 349 334 337 336 338 336 342 342 344 331 336 346 341 339 342 348 339 338 338
193 185 186 193 198 203 208 206 206 218 224 232 240 252 253 236 231 234 242 247 231 234 260 289 284 291 294 303 319 315 314 329 332 334 331 325 319 320 331 314 321 334 328 356 327 333 334 337 339 340 338 343 330 342 348 349 344 348 349 346 341 336
190 188 190 191 200 199 205 210 212 216 222 216 216 228 240 239 245 226 241 245 257 262 288 272 279 270 286 279 296 318 314 325 336 333 327 320 311 308 313 309 328 324 331 335 322 326 332 334 336 336 341 341 336 339 352 347 347 352 353 352 356 354